User: anonymous   Login
Location: Peebles
(55.6412°N, 3.1714°W)
Time: 14:59:59
(UTC+01:00)
Language:

FENGYUN 1C DEB - Orbit

View from above orbital plane
View from above orbital plane
View from above satellite
View from above satellite

Ground track
Ground track

The orbit data is extracted from the following two-line orbital elements,

1 31333U 99025BQM 22182.85962093  .00000444  00000-0  21264-3 0  9995
2 31333  98.5435 226.9989 0108910  99.7470 261.6027 14.20568563786712
Epoch (UTC): 01 July 2022 20:37:51
Eccentricity: 0.0108910
inclination: 98.5435°
perigee height: 745 km
apogee height: 902 km
right ascension of ascending node: 226.9989°
argument of perigee: 99.7470°
revolutions per day: 14.20568563
mean anomaly at epoch: 261.6027°
orbit number at epoch: 78671

The dashed part of the orbit path shows where the satellite is in the earth's shadow,  

DLR